{"data":{"norad_id":62970,"epoch":"2026-05-24T23:50:01.317984Z","epoch_age_seconds":65782,"freshness":"FRESH","line1":"1 62970U 25029Y   26144.99307081  .00013827  00000+0  47799-3 0  9995","line2":"2 62970  53.1589 237.7699 0001103  82.7057 277.4069 15.30207799 73002","mean_motion":15.30207799,"eccentricity":0.0001103,"inclination_deg":53.1589,"raan_deg":237.7699,"arg_perigee_deg":82.7057,"mean_anomaly_deg":277.4069,"bstar":0.00047799,"rev_number":7300,"period_min":94.104866080349,"perigee_km":474.43586094523,"apogee_km":475.94770527478,"semimajor_km":6853.32878311,"source":"CELESTRAK","updated_at":"2026-05-25T13:38:19.829361Z"}}